COSMOS 1275 DEB

Satellite information

Favourite Embed

Satellite Type and Status

DEBRISIN ORBIT

Key statistics

Satellite COSMOS 1275 DEB at a glance.

Uptime

16217

Days in orbit

Revolutions

≈ 14.0

Per day

Orbit

LEO

Low Earth Orbit

Inclination

82.8

Latest

Satellite identification and parameters

Extended collection of information and parameters for COSMOS 1275 DEB.

Object identification

Identified? True

Debris? True

Object name: COSMOS 1275 DEB

International designator: 1981-053KE

Object number (NORAD): 15780

Object ID (CCSDS): 15780

Country: COMMONWEALTH OF INDEPENDENT STATES (CIS)

Current information (Y/N): Y

RCS size: SMALL

Orbital parameters

Period: 103.161 minutes

Inclination: 82.8147 deg

SMA: 7286.25 km

Apoapsis: 946.904 km

Periapsis: 869.326 km

RAAN: 73.2207 deg

Eccentricy: 0.00532357

Argument of periapsis: 97.3673 deg

Mean anomaly: 54.4994 deg

Mean motion: 13.95875404 rev/day

Mean motion (dot): 0.00002001 rev/day2

B* drag term: 0.0014359564 1/REarth

Two-line elements (TLE)

Creation date: Oct. 27, 2025, 2:46 a.m.

Reference frame: TEME

Reference center: EARTH

Epoch: Oct. 26, 2025, 7:44 p.m. UTC

TLE line 0: 0 COSMOS 1275 DEB

TLE line 1: 1 15780U 81053KE 25299.82250699 .00002001 00000-0 14360-2 0 9995

TLE line 2: 2 15780 82.8147 73.2207 0053236 97.3673 54.4994 13.95875404 47662

Live tracking on map

Real-time ground track for satellite COSMOS 1275 DEB.

In-orbit conjunctions

A list of the most updated potential collisions computed for object COSMOS 1275 DEB.

Target Orbit TCA Probability of collision Miss distance Type
CZ-1 DEB LEO 2025-09-28 13:53:05 0.0001063821 435.0 (m) DEBRIS
CZ-6A DEB SSO 2025-03-12 14:00:11 0.0001267911 173.0 (m) DEBRIS
SL-8 R/B LEO 2024-12-26 23:30:38 0.000307689 126.0 (m) ROCKET BODY

Associated space launch

Navigation satellite providing location information for the Tsiklon-B navigation system

COSMOS 1275 DEB was lifted into orbit during the mission ‘Kosmos-3M | Parus 27’, on board a Kosmos-3M space rocket.

The launch took place on June 4, 1981, 3:41 p.m. from 132/2.

For more information about the launch, click the button.

Launch to space Kosmos-3M | Parus 27
Kosmos-3M | Parus 27

Agency: N/A

Status: Launch Successful

Launch date: June 4, 1981, 3:41 p.m. UTC

Rocket: Kosmos-3M

Launch pad: 132/2

Location: Plesetsk Cosmodrome, Russian Federation

...

Latest news about this satellite

There are no fresh news available about this satellite. Check back as we update our databases every day.


Newsletter sign-up

Weekly statistics, charts and insights to help you stay on top of the space industry.